Milwaukee, WI

12:05 AM CDT on August 31, 2016 (GMT -0500)
Gen Mitchell International

Weather History for KMKE - December, 2011

Change the Weather History Date:

Sunday, December 18, 2011

  Actual Average Record
Temperature  
Mean Temperature 33 °F 25 °F  
Max Temperature 42 °F 32 °F 54 °F (1877)
Min Temperature 24 °F 19 °F -20 °F (1884)
Degree Days  
Heating Degree Days 32 40  
Month to date heating degree days 558 661  
Since 1 July heating degree days 1736 2026  
Cooling Degree Days 0 0  
Month to date cooling degree days 0 0  
Year to date cooling degree days 793 641  
Moisture  
Dew Point 26 °F    
Average Humidity 73    
Maximum Humidity 92    
Minimum Humidity 54    
Precipitation  
Precipitation 0.00 in 0.06 in 0.92 in (1877)
Month to date precipitation 1.52 1.28  
Year to date precipitation 31.88 34.00  
Snow  
Snow 0.00 in 0.30 in 8.10 in (2000)
Month to date snowfall 0.9 5.6  
Since 1 July snowfall 1.0 8.3  
Snow Depth T in    
Sea Level Pressure  
Sea Level Pressure 30.05 in    
Wind  
Wind Speed 12 mph (SW)    
Max Wind Speed 25 mph    
Max Gust Speed 31 mph    
Visibility 9 miles    
Events      
T = Trace of Precipitation, MM = Missing Value Source: NWS Daily Summary

Daily Weather History Graph

Daily Weather History Graph

Search for Another Location

Airport or City:

Trip Planner

Search our weather history database for the weather conditions in past years. The results will help you decide how hot, cold, wet, or windy it might be!

Date:

Astronomy

Dec. 18, 2011 Rise Set
Actual Time 7:17 AM CST 4:18 PM CST
Civil Twilight 6:45 AM CST 4:51 PM CST
Nautical Twilight 6:09 AM CST 5:26 PM CST
Astronomical Twilight 5:34 AM CST 6:01 PM CST
Moon 12:10 AM CST (12/18) 11:50 AM CST (12/18)
Length of Visible Light 10h 05m
Length of Day
9h 01m
Last Quarter, 42% of the Moon is Illuminated
Dec 18
Last Quarter
Dec 24
New
Jan 1
First Quarter
Jan 9
Full
Jan 16
Last Quarter

Hourly Weather History & Observations

Time (CST) Temp. Windchill Dew Point Humidity Pressure Visibility Wind Dir Wind Speed Gust Speed Precip Events Conditions
12:52 AM 32.0 °F 24.8 °F 24.1 °F 73% 30.18 in 8.0 mi WNW 8.1 mph - N/A   Overcast
1:52 AM 32.0 °F 25.6 °F 23.0 °F 69% 30.20 in 10.0 mi NW 6.9 mph - N/A   Overcast
2:52 AM 30.2 °F 25.4 °F 21.2 °F 69% 30.17 in 10.0 mi West 4.6 mph - N/A   Mostly Cloudy
3:17 AM 30.2 °F - 21.2 °F 69% 30.16 in 10.0 mi Calm Calm - N/A   Scattered Clouds
3:52 AM 28.0 °F 24.2 °F 21.0 °F 75% 30.19 in 9.0 mi SW 3.5 mph - N/A   Partly Cloudy
4:52 AM 28.0 °F 21.7 °F 23.0 °F 81% 30.19 in 6.0 mi WSW 5.8 mph - N/A   Haze
5:52 AM 26.6 °F 18.2 °F 24.8 °F 93% 30.17 in 5.0 mi WSW 8.1 mph - N/A   Scattered Clouds
6:52 AM 25.0 °F 19.3 °F 21.9 °F 88% 30.19 in 4.0 mi SSW 4.6 mph - N/A   Scattered Clouds
7:52 AM 24.1 °F 16.0 °F 21.9 °F 91% 30.19 in 3.0 mi SW 6.9 mph - N/A   Scattered Clouds
8:52 AM 26.6 °F 18.2 °F 23.0 °F 86% 30.16 in 4.0 mi SW 8.1 mph - N/A   Partly Cloudy
9:52 AM 30.2 °F 21.3 °F 24.8 °F 80% 30.17 in 6.0 mi SW 10.4 mph - N/A   Haze
10:52 AM 30.9 °F 21.7 °F 23.0 °F 72% 30.17 in 9.0 mi SW 11.5 mph - N/A   Partly Cloudy
11:52 AM 33.1 °F 23.4 °F 24.1 °F 70% 30.12 in 10.0 mi SSW 13.8 mph - N/A   Scattered Clouds
12:52 PM 37.0 °F 29.3 °F 24.1 °F 59% 30.07 in 10.0 mi SW 11.5 mph - N/A   Scattered Clouds
1:52 PM 39.2 °F 30.8 °F 24.8 °F 56% 30.00 in 10.0 mi SSW 15.0 mph - N/A   Scattered Clouds
2:52 PM 39.9 °F 31.1 °F 25.0 °F 55% 30.01 in 10.0 mi SSW 17.3 mph - N/A   Scattered Clouds
3:52 PM 39.9 °F 32.5 °F 28.0 °F 63% 29.98 in 10.0 mi SSW 12.7 mph - N/A   Scattered Clouds
4:52 PM 39.0 °F 31.8 °F 28.9 °F 67% 29.95 in 10.0 mi SSW 11.5 mph - N/A   Partly Cloudy
5:52 PM 37.4 °F 28.9 °F 30.2 °F 75% 29.90 in 10.0 mi SSW 13.8 mph - N/A   Partly Cloudy
6:52 PM 37.4 °F 28.2 °F 30.2 °F 75% 29.88 in 10.0 mi SSW 16.1 mph - N/A   Clear
7:52 PM 39.9 °F 30.5 °F 32.0 °F 73% 29.88 in 10.0 mi SW 19.6 mph 26.5 mph N/A   Clear
8:52 PM 41.0 °F 31.6 °F 33.1 °F 73% 29.86 in 10.0 mi SW 20.7 mph 29.9 mph N/A   Clear
9:52 PM 41.0 °F 31.6 °F 32.0 °F 70% 29.85 in 10.0 mi SW 20.7 mph 27.6 mph N/A   Clear
10:52 PM 41.0 °F 33.1 °F 33.1 °F 73% 29.84 in 10.0 mi SW 15.0 mph - N/A   Partly Cloudy
11:52 PM 42.1 °F 34.2 °F 33.1 °F 70% 29.83 in 10.0 mi SW 16.1 mph 26.5 mph N/A   Partly Cloudy